Cleveland, OH

11:56 PM EST on January 21, 2018 (GMT -0500)
Cleveland-Hopkins International

Weather History for KCLE - February, 2013

Change the Weather History Date:

Tuesday, February 19, 2013

  Actual Average Record
Temperature  
Mean Temperature 33 °F 31 °F  
Max Temperature 48 °F 38 °F 68 °F (1939)
Min Temperature 18 °F 24 °F -4 °F (1936)
Degree Days  
Heating Degree Days 32 34  
Month to date heating degree days 716 670  
Since 1 July heating degree days 3862 3922  
Cooling Degree Days 0 0  
Month to date cooling degree days 0 0  
Year to date cooling degree days 0 0  
Moisture  
Dew Point 24 °F    
Average Humidity 73    
Maximum Humidity 92    
Minimum Humidity 53    
Precipitation  
Precipitation 0.22 in 0.08 in 0.79 in (1981)
Month to date precipitation 1.20 1.55  
Year to date precipitation 3.37 4.27  
Snow  
Snow 1.10 in 0.50 in - ()
Month to date snowfall 15.5 10.2  
Since 1 July snowfall 36.4 47.5  
Snow Depth 0.00 in    
Sea Level Pressure  
Sea Level Pressure 29.79 in    
Wind  
Wind Speed 22 mph (WSW)    
Max Wind Speed 35 mph    
Max Gust Speed 48 mph    
Visibility 7 miles    
Events Fog , Rain , Snow    
T = Trace of Precipitation, MM = Missing Value Source: NWS Daily Summary

Daily Weather History Graph

Daily Weather History Graph

Search for Another Location

Airport or City:

Trip Planner

Search our weather history database for the weather conditions in past years. The results will help you decide how hot, cold, wet, or windy it might be!

Date:

Astronomy

Feb. 19, 2013 Rise Set
Actual Time 7:16 AM EST 6:06 PM EST
Civil Twilight 6:48 AM EST 6:34 PM EST
Nautical Twilight 6:16 AM EST 7:06 PM EST
Astronomical Twilight 5:44 AM EST 7:38 PM EST
Moon 12:34 PM EST (2/19) 2:49 AM EST (2/19)
Length of Visible Light 11h 46m
Length of Day
10h 49m
Waxing Gibbous, 67% of the Moon is Illuminated
Feb 19
Waxing Gibbous
Feb 25
Full
Mar 4
Last Quarter
Mar 11
New
Mar 19
First Quarter

Hourly Weather History & Observations

Time (EST) Temp. Windchill Dew Point Humidity Pressure Visibility Wind Dir Wind Speed Gust Speed Precip Events Conditions
12:51 AM 46.9 °F - 30.9 °F 54% 29.75 in 10.0 mi SSW 25.3 mph 38.0 mph 0.00 in Rain Light Rain
1:51 AM 43.0 °F 34.5 °F 37.0 °F 80% 29.73 in 10.0 mi South 19.6 mph 26.5 mph 0.04 in Rain Light Rain
2:51 AM 43.0 °F 34.0 °F 37.0 °F 80% 29.68 in 10.0 mi South 21.9 mph 35.7 mph 0.03 in Rain Light Rain
3:51 AM 42.1 °F 32.8 °F 37.0 °F 82% 29.64 in 10.0 mi South 21.9 mph 32.2 mph 0.01 in Rain Light Rain
4:48 AM 41.0 °F 31.4 °F 37.4 °F 87% 29.60 in 10.0 mi South 21.9 mph 34.5 mph 0.02 in Rain Light Rain
4:51 AM 41.0 °F 30.9 °F 37.0 °F 86% 29.62 in 10.0 mi South 24.2 mph 34.5 mph 0.02 in Rain Light Rain
4:58 AM 41.0 °F 31.1 °F 37.0 °F 86% 29.60 in 10.0 mi South 23.0 mph 34.5 mph 0.00 in Rain Light Rain
5:51 AM 41.0 °F 31.9 °F 37.0 °F 86% 29.60 in 10.0 mi South 19.6 mph 31.1 mph 0.00 in Rain Light Rain
6:51 AM 42.1 °F 33.3 °F 37.9 °F 85% 29.59 in 10.0 mi South 19.6 mph 28.8 mph 0.00 in Rain Light Rain
7:31 AM 41.0 °F 30.7 °F 37.0 °F 86% 29.61 in 5.0 mi WSW 25.3 mph 35.7 mph 0.02 in Rain Light Rain
7:51 AM 37.9 °F 30.0 °F 35.1 °F 89% 29.64 in 10.0 mi WSW 12.7 mph 28.8 mph 0.04 in Rain Light Rain
7:56 AM 37.0 °F 27.0 °F 35.1 °F 93% 29.63 in 10.0 mi SW 18.4 mph 25.3 mph 0.00 in Rain Light Rain
8:24 AM 34.0 °F 22.7 °F 32.0 °F 92% 29.65 in 2.0 mi WSW 19.6 mph - 0.02 in Rain , Snow Light Rain
8:31 AM 33.1 °F 22.6 °F 32.0 °F 96% 29.65 in 1.0 mi SW 16.1 mph - 0.03 in Snow Light Snow
8:43 AM 33.1 °F 23.4 °F 32.0 °F 96% 29.65 in 0.8 mi SW 13.8 mph - 0.04 in Snow Light Snow
8:51 AM 33.1 °F 23.0 °F 32.0 °F 96% 29.67 in 4.0 mi SW 15.0 mph 21.9 mph 0.04 in Snow Light Snow
9:51 AM 32.0 °F 17.9 °F 28.0 °F 85% 29.70 in 10.0 mi WSW 28.8 mph 41.4 mph 0.00 in   Overcast
10:51 AM 30.0 °F 16.0 °F 26.1 °F 85% 29.72 in 10.0 mi WSW 25.3 mph 42.6 mph N/A   Overcast
11:36 AM 30.0 °F 16.3 °F 24.1 °F 79% 29.72 in 10.0 mi WSW 24.2 mph 33.4 mph 0.00 in   Overcast
11:51 AM 30.0 °F 14.7 °F 24.1 °F 79% 29.75 in 10.0 mi WSW 31.1 mph 42.6 mph N/A   Overcast
1:51 PM 28.9 °F 15.8 °F 23.0 °F 78% 29.75 in 7.0 mi WSW 20.7 mph 31.1 mph 0.00 in Snow Light Snow
2:47 PM 26.6 °F 11.7 °F 19.4 °F 74% 29.75 in 9.0 mi SW 24.2 mph 35.7 mph 0.00 in Snow Light Snow
2:51 PM 27.0 °F 11.3 °F 19.0 °F 72% 29.78 in 9.0 mi WSW 27.6 mph 36.8 mph 0.00 in Snow Light Snow
3:51 PM 26.1 °F 9.6 °F 18.0 °F 71% 29.81 in 7.0 mi WSW 29.9 mph 42.6 mph 0.00 in Snow Light Snow
4:20 PM 25.0 °F 10.2 °F 19.0 °F 78% 29.81 in 5.0 mi West 21.9 mph 31.1 mph 0.00 in Snow Light Snow
4:44 PM 25.0 °F 8.9 °F 17.1 °F 72% 29.82 in 9.0 mi WSW 26.5 mph 43.7 mph 0.00 in Snow Light Snow
4:51 PM 25.0 °F 8.1 °F 17.1 °F 72% 29.84 in 9.0 mi WSW 29.9 mph 35.7 mph 0.00 in Snow Light Snow
5:29 PM 25.0 °F 10.6 °F 19.0 °F 78% 29.84 in 1.8 mi WSW 20.7 mph 27.6 mph 0.00 in Snow Light Snow
5:38 PM 24.1 °F 11.5 °F 19.9 °F 84% 29.85 in 0.8 mi West 15.0 mph 25.3 mph 0.00 in Snow Light Snow
5:46 PM 24.8 °F 11.5 °F 19.4 °F 80% 29.86 in 0.5 mi West 17.3 mph 25.3 mph 0.00 in Fog , Snow Snow
5:51 PM 24.1 °F 12.0 °F 21.0 °F 88% 29.88 in 1.0 mi WSW 13.8 mph 25.3 mph 0.01 in Snow Light Snow
5:59 PM 24.1 °F 10.1 °F 19.9 °F 84% 29.86 in 2.0 mi West 18.4 mph 25.3 mph 0.00 in Snow Light Snow
6:11 PM 24.1 °F 8.3 °F 17.1 °F 75% 29.87 in 3.0 mi WSW 24.2 mph 34.5 mph 0.00 in Snow Light Snow
6:16 PM 23.0 °F 6.6 °F 17.1 °F 78% 29.88 in 2.0 mi WSW 25.3 mph 34.5 mph 0.00 in Snow Light Snow
7:51 PM 21.0 °F 4.6 °F 12.0 °F 68% 29.95 in 9.0 mi West 23.0 mph 34.5 mph 0.00 in Snow Light Snow
8:26 PM 21.0 °F 6.6 °F 12.9 °F 71% 29.94 in 8.0 mi WSW 17.3 mph - 0.00 in Snow Light Snow
8:40 PM 19.9 °F 3.5 °F 12.0 °F 71% 29.95 in 8.0 mi West 21.9 mph 31.1 mph 0.00 in Snow Light Snow
8:51 PM 19.9 °F 4.8 °F 12.9 °F 74% 29.98 in 5.0 mi West 18.4 mph - 0.00 in Snow Light Snow
8:59 PM 19.9 °F 3.2 °F 14.0 °F 78% 29.95 in 2.0 mi WSW 23.0 mph 26.5 mph 0.00 in Snow Light Snow
9:03 PM 19.0 °F 2.4 °F 15.1 °F 85% 29.95 in 1.0 mi WSW 21.9 mph 29.9 mph 0.00 in Snow Light Snow
9:14 PM 19.0 °F 3.6 °F 15.1 °F 85% 29.95 in 3.0 mi West 18.4 mph - 0.00 in Snow Light Snow
9:19 PM 19.0 °F 3.2 °F 14.0 °F 81% 29.95 in 4.0 mi WSW 19.6 mph 25.3 mph 0.00 in Snow Light Snow
9:44 PM 19.0 °F 1.6 °F 12.9 °F 77% 29.96 in 9.0 mi WSW 24.2 mph 28.8 mph 0.00 in Snow Light Snow
9:51 PM 19.0 °F 4.0 °F 12.0 °F 74% 29.99 in 9.0 mi WSW 17.3 mph 28.8 mph 0.00 in Snow Light Snow
10:51 PM 18.0 °F 0.9 °F 9.0 °F 68% 30.01 in 9.0 mi West 21.9 mph 34.5 mph 0.00 in Snow Light Snow
11:51 PM 18.0 °F 0.2 °F 9.0 °F 68% 30.01 in 9.0 mi WSW 24.2 mph 29.9 mph 0.00 in Snow Light Snow